Terug naar catalogus

ASTRA 1N

ActiefCommunicatieGEO
NORAD 37775·PAYLOAD·🇱🇺 Luxembourg

Gelanceerd Aug 6, 2011 vanaf Guiana Space Centre

Loading…

TLE

VersSource: CelesTrak SupGP

Epoch: Sep 13, 2026, 23:44 UTC

1 37775C 11041A   26256.98958333  .00000210  00000+0  00000+0 0  2562
2 37775   0.0715  16.9611 0004984 132.9292 218.5287  1.00273236    19

Volg ASTRA 1N in realtime met AllMySat

Download on the App Store